2021/04/19 23:29:23+0000,-41.80,-47.25,-33.91,-48.52,-53.88,-56.44
2021/04/19 23:30:16+0000,-41.89,-47.72,-32.93,-48.63,-54.60,-56.76
2021/04/19 23:31:16+0000,-42.10,-48.11,-33.51,-49.00,-54.27,-56.79
2021/04/19 23:32:08+0000,-42.57,-46.67,-26.49,-48.23,-54.32,-56.89
2021/04/19 23:33:00+0000,-42.26,-47.40,-26.44,-48.58,-54.81,-56.97
2021/04/19 23:33:52+0000,-41.84,-47.84,-32.94,-49.15,-54.70,-57.01
2021/04/19 23:34:44+0000,-41.72,-48.23,-33.57,-48.53,-54.21,-57.11
2021/04/19 23:35:36+0000,-42.27,-47.53,-32.86,-48.94,-54.17,-57.36
2021/04/19 23:36:28+0000,-42.59,-48.17,-33.32,-49.89,-54.04,-57.25
2021/04/19 23:37:20+0000,-42.47,-47.16,-32.82,-49.50,-54.13,-57.16
2021/04/19 23:38:12+0000,-41.07,-47.02,-32.82,-49.08,-54.21,-57.08
2021/04/19 23:39:04+0000,-41.21,-47.85,-32.39,-48.54,-54.19,-57.16
2021/04/19 23:39:57+0000,-41.95,-47.25,-32.93,-49.28,-54.71,-56.81
2021/04/19 23:40:49+0000,-41.49,-47.72,-33.28,-49.68,-53.66,-57.15
2021/04/19 23:41:47+0000,-41.87,-47.14,-33.30,-49.19,-53.24,-57.16
2021/04/19 23:42:39+0000,-41.00,-47.12,-32.74,-49.32,-53.99,-57.24
2021/04/19 23:43:31+0000,-41.52,-46.15,-33.08,-49.77,-53.80,-57.47
2021/04/19 23:44:23+0000,-40.37,-48.13,-33.40,-49.33,-54.50,-56.86
2021/04/19 23:45:15+0000,-40.13,-47.01,-33.53,-50.06,-54.38,-56.87
2021/04/19 23:46:07+0000,-41.26,-48.20,-32.85,-48.14,-53.44,-56.78
2021/04/19 23:46:59+0000,-40.36,-48.70,-33.38,-49.84,-54.29,-57.27
2021/04/19 23:47:51+0000,-41.05,-46.44,-33.56,-50.45,-53.78,-56.99
2021/04/19 23:48:43+0000,-40.89,-46.25,-34.52,-49.29,-53.70,-56.73
2021/04/19 23:49:35+0000,-40.81,-46.56,-33.62,-50.20,-54.58,-56.86
2021/04/19 23:50:27+0000,-40.77,-46.70,-33.83,-49.74,-53.46,-57.20
2021/04/19 23:51:32+0000,-41.02,-47.82,-33.58,-49.02,-53.81,-56.97
2021/04/19 23:52:24+0000,-40.07,-47.80,-34.35,-49.03,-54.06,-57.12
2021/04/19 23:53:16+0000,-40.17,-46.08,-33.25,-49.36,-54.65,-57.12
2021/04/19 23:54:08+0000,-40.74,-46.36,-33.33,-49.84,-53.88,-57.05
2021/04/19 23:55:00+0000,-40.22,-46.96,-33.91,-48.06,-54.13,-57.14
2021/04/19 23:55:52+0000,-41.10,-47.57,-33.72,-48.97,-53.55,-56.90
2021/04/19 23:56:44+0000,-41.26,-46.51,-34.07,-48.70,-54.47,-57.31
2021/04/19 23:57:36+0000,-39.42,-46.61,-33.61,-48.81,-54.18,-57.18
2021/04/19 23:58:29+0000,-41.78,-45.80,-33.51,-48.83,-54.17,-57.35
2021/04/19 23:59:21+0000,-40.67,-48.41,-34.04,-49.97,-53.71,-57.34
2021/04/20 00:00:13+0000,-39.91,-46.20,-33.92,-49.06,-54.32,-57.36
2021/04/20 00:01:21+0000,-39.78,-47.46,-33.24,-49.34,-54.30,-57.04
2021/04/20 00:02:13+0000,-40.76,-48.16,-33.96,-48.98,-54.03,-57.09
2021/04/20 00:03:05+0000,-40.89,-45.62,-33.54,-49.16,-53.92,-57.59
2021/04/20 00:03:57+0000,-38.50,-45.86,-33.85,-48.42,-54.11,-57.42
2021/04/20 00:04:49+0000,-41.41,-46.87,-33.22,-48.98,-53.78,-57.87
2021/04/20 00:05:42+0000,-40.91,-46.15,-33.52,-49.53,-54.00,-57.38
2021/04/20 00:06:34+0000,-40.16,-47.02,-33.68,-50.48,-53.75,-57.11
2021/04/20 00:07:26+0000,-40.52,-47.27,-33.40,-49.88,-53.50,-57.61
2021/04/20 00:08:18+0000,-38.58,-46.11,-34.48,-50.37,-53.88,-57.98
2021/04/20 00:09:10+0000,-41.11,-46.26,-34.07,-49.56,-54.36,-57.01
2021/04/20 00:10:02+0000,-37.84,-45.98,-33.88,-49.52,-53.94,-56.96
2021/04/20 00:11:07+0000,-39.61,-46.70,-33.81,-48.76,-54.88,-57.16
2021/04/20 00:11:59+0000,-39.46,-47.17,-34.12,-50.09,-54.01,-57.26
2021/04/20 00:12:51+0000,-40.30,-46.96,-33.37,-48.94,-53.53,-57.05
2021/04/20 00:13:43+0000,-39.17,-45.83,-33.99,-49.54,-53.72,-57.20
2021/04/20 00:14:35+0000,-39.12,-46.62,-33.94,-48.76,-53.58,-56.91
2021/04/20 00:15:27+0000,-41.44,-46.42,-34.24,-48.08,-53.41,-57.26
2021/04/20 00:16:19+0000,-39.93,-47.04,-33.87,-50.25,-53.58,-56.76
2021/04/20 00:17:11+0000,-39.32,-47.14,-33.48,-49.45,-53.35,-56.94
2021/04/20 00:18:03+0000,-39.28,-45.97,-33.73,-49.27,-54.24,-56.74
2021/04/20 00:18:55+0000,-40.20,-46.84,-33.59,-48.43,-54.00,-57.03
2021/04/20 00:19:48+0000,-39.93,-47.03,-33.34,-49.03,-53.86,-57.22
2021/04/20 00:20:40+0000,-39.67,-47.43,-34.44,-49.23,-53.43,-56.88
2021/04/20 00:21:42+0000,-39.29,-46.01,-33.84,-49.20,-54.41,-57.74
2021/04/20 00:22:34+0000,-40.75,-46.40,-33.73,-49.79,-54.66,-57.07
2021/04/20 00:23:26+0000,-39.27,-48.11,-33.59,-48.90,-54.59,-57.29
2021/04/20 00:24:18+0000,-37.86,-48.86,-33.38,-50.42,-54.04,-57.40
2021/04/20 00:25:10+0000,-37.94,-46.77,-33.83,-49.26,-54.50,-57.14
2021/04/20 00:26:02+0000,-38.94,-47.53,-32.83,-48.60,-54.59,-57.25
2021/04/20 00:26:54+0000,-39.91,-47.62,-33.46,-47.52,-54.52,-57.44
2021/04/20 00:27:46+0000,-39.02,-46.01,-33.82,-49.35,-54.16,-57.53
2021/04/20 00:28:38+0000,-37.66,-46.64,-33.68,-49.07,-54.41,-57.00
2021/04/20 00:29:30+0000,-38.56,-46.92,-34.13,-48.45,-54.38,-56.81
2021/04/20 00:30:23+0000,-37.24,-46.70,-33.70,-49.96,-54.34,-57.08
2021/04/20 00:31:23+0000,-38.22,-47.03,-34.04,-49.42,-53.98,-57.46
2021/04/20 00:32:15+0000,-38.33,-47.97,-33.53,-50.49,-54.57,-57.25
2021/04/20 00:33:07+0000,-38.30,-46.46,-33.38,-48.24,-53.92,-57.24
2021/04/20 00:33:59+0000,-39.26,-46.32,-33.67,-50.05,-54.03,-57.07
2021/04/20 00:34:51+0000,-37.17,-47.29,-34.05,-50.00,-53.57,-57.11
2021/04/20 00:35:44+0000,-39.01,-47.56,-34.21,-49.55,-53.82,-57.14
2021/04/20 00:36:36+0000,-38.85,-46.18,-33.87,-50.21,-53.68,-56.88
2021/04/20 00:37:28+0000,-40.04,-48.26,-33.98,-49.64,-53.85,-57.30
2021/04/20 00:38:20+0000,-38.39,-47.18,-33.90,-49.80,-53.70,-57.58
2021/04/20 00:39:12+0000,-39.04,-46.59,-33.94,-49.08,-54.01,-57.73
2021/04/20 00:40:04+0000,-38.31,-46.77,-34.20,-49.57,-53.97,-57.17
2021/04/20 00:41:04+0000,-38.73,-46.40,-34.43,-49.67,-54.04,-57.67
2021/04/20 00:41:56+0000,-39.78,-46.14,-33.95,-50.16,-54.49,-57.45
2021/04/20 00:42:48+0000,-39.40,-46.15,-34.15,-50.56,-54.57,-57.66
2021/04/20 00:43:40+0000,-39.04,-48.41,-33.41,-50.04,-54.38,-56.58
2021/04/20 00:44:32+0000,-38.38,-50.76,-32.78,-49.51,-54.73,-57.13
2021/04/20 00:45:24+0000,-36.90,-50.74,-34.04,-48.67,-54.01,-57.02
2021/04/20 00:46:16+0000,-37.81,-50.18,-33.78,-48.71,-54.17,-57.24
2021/04/20 00:47:08+0000,-40.40,-51.01,-33.79,-49.46,-53.97,-57.16
2021/04/20 00:48:00+0000,-40.24,-50.70,-33.98,-49.19,-54.47,-57.24
2021/04/20 00:48:52+0000,-39.99,-51.30,-34.34,-49.58,-54.63,-57.34
2021/04/20 00:49:45+0000,-39.25,-50.65,-33.62,-48.83,-53.56,-57.22
2021/04/20 00:50:37+0000,-40.37,-51.49,-34.23,-48.11,-53.95,-57.23
2021/04/20 00:51:37+0000,-40.95,-51.45,-34.28,-48.92,-53.88,-57.55
2021/04/20 00:52:29+0000,-38.70,-51.16,-34.74,-49.51,-54.06,-57.49
2021/04/20 00:53:21+0000,-38.51,-51.18,-34.34,-49.54,-54.58,-57.84
2021/04/20 00:54:13+0000,-38.31,-50.78,-34.87,-49.24,-53.68,-57.84
2021/04/20 00:55:06+0000,-39.19,-50.40,-34.64,-49.46,-53.91,-57.57
2021/04/20 00:55:58+0000,-38.31,-50.47,-33.97,-50.02,-54.38,-57.45
2021/04/20 00:56:50+0000,-38.33,-50.67,-33.74,-49.81,-54.11,-57.32
2021/04/20 00:57:42+0000,-40.36,-50.68,-34.24,-49.44,-54.14,-57.38
2021/04/20 00:58:34+0000,-39.61,-51.03,-34.33,-49.63,-54.26,-57.24
2021/04/20 00:59:26+0000,-39.12,-51.18,-34.18,-48.53,-53.92,-57.27
2021/04/20 01:00:18+0000,-39.80,-49.15,-33.89,-49.40,-54.00,-57.13
2021/04/20 01:01:19+0000,-38.69,-49.20,-33.98,-48.83,-53.74,-57.36
2021/04/20 01:02:11+0000,-40.15,-49.15,-34.02,-48.96,-54.19,-57.17
2021/04/20 01:03:03+0000,-38.60,-48.92,-34.05,-48.55,-54.45,-57.09
2021/04/20 01:03:55+0000,-38.93,-51.14,-34.09,-48.37,-54.07,-56.95
2021/04/20 01:04:47+0000,-38.59,-50.88,-34.85,-47.72,-54.04,-57.87
2021/04/20 01:05:39+0000,-38.83,-49.89,-33.92,-48.96,-53.29,-57.34
2021/04/20 01:06:31+0000,-37.62,-48.74,-34.92,-48.24,-53.31,-57.02
2021/04/20 01:07:23+0000,-39.37,-48.43,-34.01,-48.83,-53.67,-57.55
2021/04/20 01:08:15+0000,-38.65,-48.00,-33.56,-49.55,-54.49,-57.96
2021/04/20 01:09:07+0000,-39.48,-47.50,-32.95,-49.66,-53.43,-57.14
2021/04/20 01:10:00+0000,-39.91,-49.07,-34.26,-48.02,-53.46,-57.15
2021/04/20 01:11:00+0000,-39.01,-48.88,-33.87,-49.16,-54.53,-57.19
2021/04/20 01:11:52+0000,-39.44,-47.90,-33.46,-49.30,-54.08,-56.58
2021/04/20 01:12:44+0000,-37.72,-47.82,-32.78,-48.42,-53.94,-57.34
2021/04/20 01:13:36+0000,-37.99,-49.94,-33.96,-48.39,-53.82,-57.50
2021/04/20 01:14:28+0000,-38.20,-48.99,-33.92,-47.99,-53.63,-57.51
2021/04/20 01:15:20+0000,-38.06,-49.01,-33.32,-48.92,-54.18,-57.09
2021/04/20 01:16:12+0000,-38.00,-48.01,-33.23,-49.42,-54.26,-57.24
2021/04/20 01:17:04+0000,-38.48,-47.67,-32.70,-49.82,-54.22,-57.28
2021/04/20 01:17:56+0000,-37.86,-48.58,-33.30,-48.50,-54.00,-56.89
2021/04/20 01:18:48+0000,-35.96,-48.01,-33.62,-50.48,-54.74,-57.39
2021/04/20 01:19:41+0000,-39.76,-47.89,-32.85,-49.55,-54.52,-57.35
2021/04/20 01:20:33+0000,-40.93,-50.32,-33.37,-49.64,-54.53,-57.42
2021/04/20 01:21:33+0000,-42.14,-50.64,-33.57,-49.77,-54.86,-57.33
2021/04/20 01:22:25+0000,-41.12,-50.42,-33.14,-49.82,-54.39,-45.09
2021/04/20 01:23:17+0000,-42.41,-50.13,-33.49,-49.04,-54.53,-56.49
2021/04/20 01:24:09+0000,-41.92,-50.08,-33.75,-48.76,-54.29,-57.38
2021/04/20 01:25:01+0000,-38.18,-50.51,-33.18,-49.24,-55.09,-57.25
2021/04/20 01:25:53+0000,-41.01,-50.76,-33.41,-49.62,-54.13,-56.95
2021/04/20 01:26:45+0000,-40.46,-49.41,-33.28,-48.77,-54.36,-57.31
2021/04/20 01:27:37+0000,-41.84,-50.23,-33.41,-48.53,-53.54,-57.69
2021/04/20 01:28:29+0000,-41.31,-50.90,-33.29,-49.48,-53.97,-57.30
2021/04/20 01:29:21+0000,-39.39,-50.62,-33.27,-49.72,-54.80,-57.41
2021/04/20 01:30:14+0000,-37.57,-50.12,-33.51,-49.58,-54.08,-57.12
2021/04/20 01:31:14+0000,-41.22,-49.94,-33.69,-48.83,-54.91,-57.57
2021/04/20 01:32:06+0000,-40.44,-50.63,-33.81,-49.55,-54.68,-57.32
2021/04/20 01:32:58+0000,-38.20,-50.78,-33.82,-49.72,-54.54,-57.34
2021/04/20 01:33:50+0000,-38.81,-49.98,-33.90,-50.48,-54.70,-57.15
2021/04/20 01:34:42+0000,-40.30,-46.85,-34.11,-49.91,-53.82,-57.75
2021/04/20 01:35:34+0000,-40.45,-46.72,-32.35,-51.05,-54.00,-57.48
2021/04/20 01:36:26+0000,-40.16,-47.64,-33.48,-49.80,-54.37,-56.95
2021/04/20 01:37:18+0000,-39.40,-45.78,-34.10,-49.72,-54.53,-57.98
2021/04/20 01:38:10+0000,-39.77,-46.44,-32.94,-49.16,-54.63,-56.93
2021/04/20 01:39:02+0000,-38.21,-46.69,-33.49,-49.97,-54.53,-57.06
2021/04/20 01:39:55+0000,-40.71,-46.30,-33.32,-48.84,-54.24,-57.88
2021/04/20 01:40:47+0000,-41.55,-46.42,-33.50,-49.23,-54.11,-57.25
2021/04/20 01:41:46+0000,-40.02,-46.83,-33.38,-50.06,-55.08,-57.27
2021/04/20 01:42:38+0000,-39.36,-47.53,-33.21,-49.46,-54.47,-57.37
2021/04/20 01:43:30+0000,-39.45,-47.09,-33.37,-48.75,-54.45,-57.48
2021/04/20 01:44:22+0000,-40.70,-47.12,-32.42,-48.17,-54.40,-57.88
2021/04/20 01:45:14+0000,-41.07,-46.15,-33.46,-49.05,-54.53,-57.60
2021/04/20 01:46:06+0000,-39.69,-46.50,-33.61,-50.23,-55.07,-56.99
2021/04/20 01:46:58+0000,-40.23,-46.79,-33.59,-49.50,-54.36,-56.75
2021/04/20 01:47:50+0000,-39.86,-45.69,-33.40,-50.55,-54.28,-57.05
2021/04/20 01:48:42+0000,-40.86,-45.95,-33.16,-49.70,-53.39,-57.04
2021/04/20 01:49:34+0000,-38.83,-46.91,-33.51,-49.91,-54.10,-56.21
2021/04/20 01:50:27+0000,-41.20,-46.53,-33.95,-50.05,-54.38,-56.48
2021/04/20 01:51:27+0000,-40.87,-47.06,-33.47,-49.83,-53.74,-57.12
2021/04/20 01:52:19+0000,-39.78,-45.84,-33.47,-50.23,-54.73,-56.53
2021/04/20 01:53:11+0000,-40.54,-47.95,-33.13,-48.80,-54.46,-56.51
2021/04/20 01:54:03+0000,-39.96,-46.02,-33.25,-50.10,-54.84,-56.41
2021/04/20 01:54:55+0000,-41.71,-46.61,-33.31,-49.29,-54.86,-56.60
2021/04/20 01:55:47+0000,-41.06,-45.75,-33.53,-48.14,-54.46,-57.06
2021/04/20 01:56:39+0000,-41.12,-47.06,-33.08,-48.98,-54.86,-57.07
2021/04/20 01:57:31+0000,-40.86,-46.47,-33.31,-49.67,-53.86,-56.75
2021/04/20 01:58:23+0000,-41.18,-47.77,-34.46,-48.90,-54.16,-56.63
2021/04/20 01:59:15+0000,-39.76,-46.23,-33.31,-48.22,-54.28,-56.70
2021/04/20 02:00:07+0000,-39.71,-47.52,-32.98,-48.72,-54.12,-57.23
2021/04/20 02:01:08+0000,-40.82,-48.88,-33.52,-49.30,-54.34,-56.85
2021/04/20 02:02:00+0000,-41.23,-49.38,-33.27,-49.41,-55.08,-57.40
2021/04/20 02:02:52+0000,-39.79,-50.83,-33.71,-49.77,-54.80,-56.78
2021/04/20 02:03:44+0000,-38.39,-49.67,-33.64,-49.27,-54.12,-56.93
2021/04/20 02:04:36+0000,-39.27,-51.28,-33.10,-50.11,-54.45,-56.93
2021/04/20 02:05:28+0000,-38.09,-50.07,-33.62,-48.44,-54.91,-57.01
2021/04/20 02:06:20+0000,-38.53,-50.49,-33.24,-49.13,-54.09,-57.79
2021/04/20 02:07:12+0000,-39.68,-49.68,-33.44,-48.55,-54.39,-57.64
2021/04/20 02:08:04+0000,-37.45,-49.76,-34.13,-49.22,-53.38,-56.85
2021/04/20 02:08:56+0000,-38.95,-49.33,-33.97,-49.02,-53.79,-56.94
2021/04/20 02:09:48+0000,-38.79,-49.76,-33.69,-49.80,-53.72,-56.72
2021/04/20 02:10:40+0000,-40.92,-49.84,-33.91,-48.63,-53.80,-56.99
2021/04/20 02:11:40+0000,-39.84,-49.49,-34.46,-49.95,-53.79,-56.70
2021/04/20 02:12:32+0000,-41.65,-49.90,-33.08,-51.08,-54.22,-56.72
2021/04/20 02:13:25+0000,-41.44,-49.40,-34.76,-49.71,-54.24,-56.75
2021/04/20 02:14:17+0000,-40.19,-48.94,-34.22,-50.33,-54.12,-57.05
2021/04/20 02:15:09+0000,-40.33,-48.59,-33.35,-50.48,-54.30,-57.12
2021/04/20 02:16:01+0000,-39.56,-49.64,-33.23,-49.96,-54.68,-57.42
2021/04/20 02:16:53+0000,-39.82,-49.75,-33.78,-49.11,-53.80,-56.74
2021/04/20 02:17:45+0000,-41.25,-49.55,-34.79,-50.25,-54.33,-56.38
2021/04/20 02:18:37+0000,-41.07,-50.78,-34.13,-49.32,-54.22,-56.93
2021/04/20 02:19:29+0000,-40.57,-48.63,-34.49,-49.93,-54.38,-56.30
2021/04/20 02:20:21+0000,-39.95,-49.42,-34.50,-49.07,-53.83,-56.93
2021/04/20 02:21:22+0000,-39.15,-48.61,-33.72,-49.81,-53.63,-57.10
2021/04/20 02:22:14+0000,-39.48,-48.45,-33.71,-49.79,-53.61,-57.33
2021/04/20 02:23:06+0000,-39.67,-50.45,-33.85,-50.20,-53.88,-56.98
2021/04/20 02:23:58+0000,-39.03,-46.69,-33.79,-49.35,-54.10,-57.18
2021/04/20 02:24:50+0000,-41.63,-50.14,-33.27,-49.62,-54.11,-56.54
2021/04/20 02:25:42+0000,-39.96,-49.95,-33.36,-50.58,-54.71,-56.46
2021/04/20 02:26:34+0000,-38.80,-47.82,-33.23,-49.76,-53.53,-56.86
2021/04/20 02:27:26+0000,-40.39,-48.36,-33.55,-50.39,-53.75,-56.37
2021/04/20 02:28:19+0000,-39.79,-48.90,-33.53,-50.19,-53.78,-56.93
2021/04/20 02:29:11+0000,-42.14,-49.57,-33.54,-49.15,-53.74,-57.05
2021/04/20 02:30:03+0000,-39.23,-47.68,-34.13,-49.01,-53.66,-56.79
2021/04/20 02:31:01+0000,-41.89,-48.57,-34.65,-49.58,-54.40,-56.76
2021/04/20 02:31:53+0000,-40.03,-47.45,-33.43,-48.67,-53.57,-57.16
2021/04/20 02:32:45+0000,-41.06,-49.14,-32.71,-49.79,-54.57,-57.07
2021/04/20 02:33:37+0000,-40.70,-50.23,-32.85,-50.12,-53.04,-56.66
2021/04/20 02:34:29+0000,-40.40,-48.77,-33.18,-49.69,-54.34,-56.98
2021/04/20 02:35:21+0000,-41.55,-50.17,-32.86,-49.87,-53.21,-56.50
2021/04/20 02:36:13+0000,-39.23,-49.19,-33.24,-49.90,-53.46,-57.26
2021/04/20 02:37:05+0000,-37.78,-48.75,-33.69,-50.36,-54.03,-56.30
2021/04/20 02:37:57+0000,-38.70,-48.79,-33.15,-48.06,-53.70,-56.45
2021/04/20 02:38:49+0000,-39.81,-48.13,-33.78,-50.21,-53.85,-56.16
2021/04/20 02:39:42+0000,-41.66,-47.90,-34.29,-49.25,-54.59,-55.86
2021/04/20 02:40:34+0000,-41.96,-47.27,-33.59,-50.49,-53.99,-57.26
2021/04/20 02:41:34+0000,-39.30,-49.03,-32.82,-50.23,-54.01,-56.73
2021/04/20 02:42:26+0000,-39.96,-49.07,-33.02,-49.61,-54.38,-56.93
2021/04/20 02:43:18+0000,-39.68,-48.74,-32.78,-50.23,-53.98,-56.21
2021/04/20 02:44:10+0000,-40.97,-48.26,-33.01,-49.71,-54.79,-56.87
2021/04/20 02:45:02+0000,-40.02,-47.25,-33.21,-49.27,-54.54,-56.84
2021/04/20 02:45:54+0000,-40.72,-48.31,-33.72,-49.35,-54.21,-56.56
2021/04/20 02:46:46+0000,-40.34,-49.85,-32.20,-47.33,-54.55,-57.16
2021/04/20 02:47:38+0000,-41.09,-50.37,-32.31,-49.73,-54.62,-56.55
2021/04/20 02:48:30+0000,-40.04,-46.91,-32.28,-48.79,-54.66,-56.42
2021/04/20 02:49:22+0000,-40.49,-51.04,-32.68,-49.00,-54.25,-56.67
2021/04/20 02:50:14+0000,-40.66,-49.34,-32.65,-48.52,-54.09,-56.65
2021/04/20 02:51:14+0000,-40.95,-49.50,-32.81,-47.16,-54.36,-56.85
2021/04/20 02:52:07+0000,-40.16,-50.63,-32.25,-48.35,-54.39,-56.59
2021/04/20 02:52:59+0000,-40.05,-48.49,-32.96,-50.18,-54.41,-56.93
2021/04/20 02:53:51+0000,-40.16,-50.27,-32.35,-50.06,-54.18,-56.74
2021/04/20 02:54:43+0000,-41.11,-48.13,-32.51,-48.67,-54.07,-56.98
2021/04/20 02:55:35+0000,-41.32,-49.10,-32.17,-50.84,-53.21,-57.80
2021/04/20 02:56:27+0000,-41.09,-49.08,-32.36,-50.18,-52.87,-56.92
2021/04/20 02:57:19+0000,-42.23,-48.05,-32.12,-49.69,-54.39,-56.63
2021/04/20 02:58:11+0000,-41.90,-48.59,-32.18,-49.81,-53.95,-56.93
2021/04/20 02:59:03+0000,-41.51,-48.81,-32.04,-49.80,-54.19,-56.74
2021/04/20 02:59:55+0000,-41.01,-49.34,-32.64,-49.67,-53.42,-56.39
2021/04/20 03:00:47+0000,-41.13,-47.75,-32.19,-49.13,-54.02,-56.33
2021/04/20 03:01:48+0000,-38.41,-48.87,-32.93,-49.92,-54.09,-56.49
2021/04/20 03:02:40+0000,-40.11,-48.63,-32.42,-47.83,-54.47,-56.42
2021/04/20 03:03:32+0000,-41.92,-49.05,-31.99,-49.81,-54.37,-56.24
2021/04/20 03:04:24+0000,-39.25,-49.27,-32.22,-49.33,-53.86,-56.17
2021/04/20 03:05:16+0000,-38.58,-48.81,-32.16,-47.45,-54.58,-56.60
2021/04/20 03:06:08+0000,-39.07,-48.38,-31.46,-48.76,-53.69,-56.28
2021/04/20 03:07:00+0000,-40.07,-48.82,-32.13,-47.83,-54.80,-56.57
2021/04/20 03:07:52+0000,-39.95,-48.81,-31.76,-49.17,-54.38,-56.84
2021/04/20 03:08:44+0000,-40.17,-48.13,-32.14,-48.68,-53.89,-56.37
2021/04/20 03:09:36+0000,-40.57,-50.65,-31.44,-47.13,-54.34,-56.70
2021/04/20 03:10:28+0000,-41.13,-46.20,-31.96,-50.94,-54.21,-57.13
2021/04/20 03:11:29+0000,-39.15,-46.77,-32.70,-49.28,-54.17,-56.47
2021/04/20 03:12:21+0000,-39.59,-51.01,-31.95,-49.56,-53.96,-56.94
2021/04/20 03:13:13+0000,-41.17,-49.56,-32.28,-47.25,-54.81,-56.66
2021/04/20 03:14:05+0000,-40.54,-50.53,-32.30,-45.67,-54.36,-56.17
2021/04/20 03:14:57+0000,-41.36,-48.16,-32.38,-50.22,-54.14,-56.46
2021/04/20 03:15:49+0000,-38.77,-48.85,-32.39,-50.26,-54.69,-56.37
2021/04/20 03:16:41+0000,-40.27,-48.67,-30.81,-48.95,-54.07,-56.22
2021/04/20 03:17:33+0000,-39.44,-46.38,-31.85,-49.55,-53.86,-56.52
2021/04/20 03:18:25+0000,-41.35,-45.98,-33.47,-48.68,-53.91,-56.23
2021/04/20 03:19:17+0000,-38.42,-49.32,-32.75,-48.66,-55.01,-56.42
2021/04/20 03:20:09+0000,-38.87,-49.02,-33.15,-47.71,-54.92,-56.06
2021/04/20 03:21:09+0000,-41.00,-48.92,-33.27,-48.74,-54.91,-56.04
2021/04/20 03:22:01+0000,-39.68,-47.85,-32.84,-49.79,-53.10,-56.18
2021/04/20 03:22:53+0000,-40.08,-48.95,-33.54,-48.59,-54.12,-56.55
2021/04/20 03:23:45+0000,-41.66,-50.10,-33.46,-48.80,-53.86,-56.45
2021/04/20 03:24:37+0000,-40.42,-49.80,-31.70,-49.36,-53.07,-55.63
2021/04/20 03:25:29+0000,-39.53,-48.41,-32.16,-49.26,-53.49,-56.05
2021/04/20 03:26:21+0000,-40.78,-51.05,-33.02,-49.19,-53.58,-55.68
2021/04/20 03:27:13+0000,-40.81,-47.88,-33.68,-49.85,-54.15,-56.23
2021/04/20 03:28:05+0000,-39.23,-50.59,-33.44,-48.90,-53.76,-55.48
2021/04/20 03:28:57+0000,-39.70,-47.82,-33.44,-49.51,-53.91,-56.15
2021/04/20 03:29:50+0000,-38.32,-46.52,-32.99,-49.84,-53.41,-55.94
2021/04/20 03:30:42+0000,-40.16,-47.68,-33.40,-50.00,-53.41,-56.37
2021/04/20 03:31:47+0000,-40.88,-47.22,-33.04,-49.10,-53.67,-55.80
2021/04/20 03:32:39+0000,-39.92,-47.11,-32.71,-49.70,-53.75,-56.04
2021/04/20 03:33:31+0000,-38.27,-48.96,-31.99,-48.70,-53.43,-55.77
2021/04/20 03:34:23+0000,-39.55,-46.69,-33.18,-49.21,-53.63,-56.09
2021/04/20 03:35:15+0000,-41.64,-43.66,-33.34,-48.62,-52.92,-55.74
2021/04/20 03:36:07+0000,-41.58,-48.06,-32.22,-44.75,-53.87,-55.71
2021/04/20 03:36:59+0000,-38.86,-46.74,-33.20,-44.48,-52.94,-55.49
2021/04/20 03:37:51+0000,-39.23,-44.43,-32.38,-44.80,-53.44,-55.90
2021/04/20 03:38:43+0000,-34.44,-45.48,-32.37,-42.02,-53.15,-55.56
2021/04/20 03:39:35+0000,-38.82,-44.68,-33.21,-48.64,-54.06,-56.32
2021/04/20 03:40:27+0000,-39.12,-45.46,-33.06,-47.80,-53.22,-55.70
2021/04/20 03:41:31+0000,-40.36,-44.40,-32.16,-48.73,-53.82,-56.00
2021/04/20 03:42:23+0000,-37.65,-44.42,-33.53,-49.07,-53.32,-55.92
2021/04/20 03:43:15+0000,-39.26,-44.38,-32.79,-46.39,-53.87,-56.54
2021/04/20 03:44:07+0000,-38.66,-47.65,-32.91,-45.15,-53.20,-55.69
2021/04/20 03:44:59+0000,-40.10,-45.86,-32.99,-48.71,-53.09,-55.41
2021/04/20 03:45:52+0000,-38.41,-47.37,-33.57,-47.81,-52.20,-56.22
2021/04/20 03:46:44+0000,-40.94,-45.41,-32.85,-48.86,-53.20,-56.01
2021/04/20 03:47:36+0000,-38.35,-44.79,-33.18,-47.75,-53.49,-56.16
2021/04/20 03:48:28+0000,-39.12,-45.90,-32.72,-48.18,-52.91,-55.85
2021/04/20 03:49:20+0000,-38.69,-45.22,-32.90,-47.47,-53.39,-56.01
2021/04/20 03:50:12+0000,-39.00,-45.58,-33.35,-48.41,-53.19,-55.82
2021/04/20 03:51:12+0000,-39.33,-45.01,-33.26,-47.89,-53.11,-55.92
2021/04/20 03:52:04+0000,-39.52,-44.49,-32.94,-48.18,-53.30,-55.93
2021/04/20 03:52:56+0000,-38.38,-43.53,-33.80,-47.90,-52.95,-55.94
2021/04/20 03:53:48+0000,-40.21,-44.34,-33.64,-48.41,-52.99,-56.30
2021/04/20 03:54:40+0000,-37.41,-44.86,-31.72,-48.35,-54.10,-55.66
2021/04/20 03:55:32+0000,-39.18,-45.43,-32.30,-47.79,-53.62,-56.41
2021/04/20 03:56:24+0000,-38.06,-45.85,-33.76,-47.99,-53.54,-55.92
2021/04/20 03:57:16+0000,-39.09,-44.24,-31.90,-47.80,-53.40,-56.21
2021/04/20 03:58:08+0000,-38.61,-46.19,-31.32,-47.58,-53.02,-56.13
2021/04/20 03:59:00+0000,-37.75,-43.95,-31.85,-48.26,-53.18,-56.58
2021/04/20 03:59:52+0000,-37.91,-46.16,-31.89,-47.78,-53.25,-56.60
2021/04/20 04:00:44+0000,-38.50,-44.97,-31.84,-47.36,-52.31,-56.32
2021/04/20 04:01:45+0000,-38.25,-44.50,-32.46,-47.58,-52.62,-56.56
2021/04/20 04:02:37+0000,-38.99,-45.41,-32.24,-47.34,-52.75,-56.53
2021/04/20 04:03:29+0000,-38.85,-46.32,-32.36,-47.73,-52.65,-56.45
2021/04/20 04:04:22+0000,-39.09,-44.72,-32.37,-46.98,-53.40,-56.54
2021/04/20 04:05:14+0000,-40.21,-46.07,-31.53,-47.04,-53.22,-56.40
2021/04/20 04:06:06+0000,-39.42,-45.35,-31.29,-47.92,-53.23,-56.48
2021/04/20 04:06:58+0000,-38.02,-44.14,-31.43,-46.96,-52.59,-56.60
2021/04/20 04:07:50+0000,-37.63,-45.73,-32.85,-46.90,-52.35,-56.75
2021/04/20 04:08:42+0000,-38.22,-44.56,-32.89,-46.44,-52.52,-55.85
2021/04/20 04:09:34+0000,-39.60,-44.53,-31.44,-47.10,-52.45,-56.60
2021/04/20 04:10:26+0000,-39.36,-45.42,-31.30,-46.94,-52.88,-56.71
2021/04/20 04:11:26+0000,-37.50,-44.42,-32.24,-47.11,-52.18,-56.48
2021/04/20 04:12:18+0000,-37.59,-45.13,-31.30,-47.29,-53.06,-56.77
2021/04/20 04:13:10+0000,-37.99,-43.97,-31.79,-47.21,-52.15,-56.76
2021/04/20 04:14:02+0000,-38.65,-43.92,-31.18,-47.18,-52.52,-56.29
2021/04/20 04:14:54+0000,-39.59,-43.90,-31.78,-46.98,-52.61,-56.41
2021/04/20 04:15:46+0000,-38.80,-44.10,-31.11,-45.97,-51.80,-56.20
2021/04/20 04:16:38+0000,-39.61,-43.87,-31.68,-46.96,-53.19,-56.80
2021/04/20 04:17:30+0000,-39.91,-44.74,-32.66,-46.96,-52.57,-56.22
2021/04/20 04:18:22+0000,-38.97,-45.07,-31.57,-46.85,-52.02,-56.07
2021/04/20 04:19:14+0000,-38.98,-45.25,-31.65,-47.31,-52.90,-56.15
2021/04/20 04:20:07+0000,-39.05,-44.68,-32.05,-47.01,-52.21,-56.52
2021/04/20 04:21:07+0000,-39.51,-45.27,-31.44,-47.73,-52.60,-56.80
2021/04/20 04:21:59+0000,-38.71,-44.72,-31.72,-46.85,-52.65,-56.23
2021/04/20 04:22:51+0000,-38.60,-46.33,-31.31,-46.52,-52.23,-57.48
2021/04/20 04:23:43+0000,-39.51,-45.68,-31.21,-46.86,-52.14,-56.74
2021/04/20 04:24:35+0000,-40.49,-47.03,-31.71,-47.23,-52.97,-56.63
2021/04/20 04:25:27+0000,-38.39,-45.94,-31.78,-47.25,-52.48,-56.92
2021/04/20 04:26:19+0000,-38.59,-44.73,-31.74,-47.20,-52.77,-56.04
2021/04/20 04:27:11+0000,-39.67,-45.58,-31.42,-46.93,-51.98,-56.74
2021/04/20 04:28:03+0000,-39.59,-44.33,-32.04,-47.12,-52.15,-57.29
2021/04/20 04:28:55+0000,-38.45,-44.58,-32.12,-47.37,-51.88,-56.43
2021/04/20 04:29:47+0000,-38.61,-45.25,-31.83,-47.43,-52.50,-56.38
2021/04/20 04:30:40+0000,-40.69,-44.65,-31.89,-47.54,-52.52,-55.87
2021/04/20 04:31:40+0000,-38.09,-45.09,-31.63,-47.63,-52.22,-56.55
2021/04/20 04:32:32+0000,-38.03,-45.50,-31.65,-47.11,-52.19,-56.44
2021/04/20 04:33:24+0000,-38.54,-46.24,-31.91,-47.30,-52.44,-55.66
2021/04/20 04:34:16+0000,-38.08,-47.71,-31.65,-47.19,-53.05,-56.34
2021/04/20 04:35:08+0000,-38.75,-48.10,-32.14,-47.64,-52.94,-56.80
2021/04/20 04:36:00+0000,-41.07,-47.88,-32.22,-47.26,-52.86,-56.12
2021/04/20 04:36:52+0000,-40.08,-48.97,-31.40,-47.67,-52.87,-56.84
2021/04/20 04:37:44+0000,-38.11,-47.10,-32.00,-47.51,-53.13,-56.45
2021/04/20 04:38:36+0000,-38.34,-49.40,-31.60,-47.37,-52.92,-56.71
2021/04/20 04:39:28+0000,-40.22,-46.96,-31.46,-46.88,-52.31,-56.82
2021/04/20 04:40:20+0000,-39.83,-48.03,-31.10,-47.13,-52.47,-56.72
2021/04/20 04:41:22+0000,-38.56,-46.98,-31.60,-46.99,-51.98,-56.66
2021/04/20 04:42:14+0000,-37.88,-44.44,-31.70,-47.52,-52.43,-56.97
2021/04/20 04:43:06+0000,-39.53,-45.88,-31.88,-47.04,-52.73,-56.70
2021/04/20 04:43:58+0000,-39.71,-45.42,-31.32,-47.27,-52.98,-56.68